TimeEST,TemperatureF,Dew PointF,Humidity,Sea Level PressureIn,VisibilityMPH,Wind Direction,Wind SpeedMPH,Gust SpeedMPH,PrecipitationIn,Events,Conditions,WindDirDegrees,DateUTC
12:54 AM,27.0,18.0,69,30.40,10.0,Calm,Calm,-,N/A,,Mostly Cloudy,0,2012-12-06 05:54:00
1:54 AM,27.0,19.0,72,30.41,10.0,Calm,Calm,-,N/A,,Mostly Cloudy,0,2012-12-06 06:54:00
2:54 AM,27.0,18.0,69,30.41,10.0,Calm,Calm,-,N/A,,Mostly Cloudy,0,2012-12-06 07:54:00
3:54 AM,24.1,19.0,81,30.40,10.0,ESE,4.6,-,N/A,,Scattered Clouds,120,2012-12-06 08:54:00
4:54 AM,23.0,18.0,81,30.37,10.0,ESE,4.6,-,N/A,,Mostly Cloudy,110,2012-12-06 09:54:00
5:54 AM,23.0,18.0,81,30.38,10.0,ESE,4.6,-,N/A,,Mostly Cloudy,110,2012-12-06 10:54:00
6:54 AM,23.0,18.0,81,30.38,10.0,East,3.5,-,N/A,,Mostly Cloudy,90,2012-12-06 11:54:00
7:54 AM,23.0,18.0,81,30.39,10.0,East,3.5,-,N/A,,Mostly Cloudy,100,2012-12-06 12:54:00
8:54 AM,25.0,18.0,75,30.37,10.0,ESE,6.9,-,N/A,,Mostly Cloudy,120,2012-12-06 13:54:00
9:54 AM,28.9,19.9,69,30.34,10.0,SE,6.9,-,N/A,,Mostly Cloudy,130,2012-12-06 14:54:00
10:54 AM,30.0,19.9,66,30.31,10.0,ESE,8.1,-,N/A,,Mostly Cloudy,110,2012-12-06 15:54:00
11:54 AM,33.1,21.0,61,30.26,10.0,East,5.8,-,N/A,,Mostly Cloudy,100,2012-12-06 16:54:00
12:54 PM,37.0,21.0,52,30.21,10.0,ESE,8.1,-,N/A,,Mostly Cloudy,110,2012-12-06 17:54:00
1:54 PM,39.9,21.0,47,30.17,10.0,ESE,6.9,-,N/A,,Mostly Cloudy,120,2012-12-06 18:54:00
2:54 PM,42.1,21.0,43,30.15,10.0,NE,3.5,-,N/A,,Mostly Cloudy,50,2012-12-06 19:54:00
3:54 PM,39.0,23.0,53,30.14,10.0,NNE,6.9,-,N/A,,Mostly Cloudy,30,2012-12-06 20:54:00
4:54 PM,37.0,23.0,57,30.13,10.0,North,5.8,-,N/A,,Mostly Cloudy,10,2012-12-06 21:54:00
5:54 PM,36.0,25.0,64,30.10,10.0,ENE,5.8,-,N/A,,Overcast,70,2012-12-06 22:54:00
6:54 PM,39.9,19.0,43,30.08,10.0,SE,8.1,-,N/A,,Overcast,130,2012-12-06 23:54:00
7:54 PM,39.2,19.4,45,30.05,10.0,South,4.6,-,N/A,,Overcast,180,2012-12-07 00:54:00
8:54 PM,41.0,18.0,40,30.06,10.0,SSW,11.5,-,N/A,,Overcast,200,2012-12-07 01:54:00
9:54 PM,39.0,19.0,45,30.05,10.0,South,8.1,-,N/A,,Overcast,190,2012-12-07 02:54:00
10:54 PM,37.0,19.0,48,30.05,10.0,SSW,6.9,-,N/A,,Overcast,200,2012-12-07 03:54:00
11:54 PM,39.0,18.0,43,30.03,10.0,South,11.5,-,N/A,,Overcast,180,2012-12-07 04:54:00